"Pseudo-MPEC" for P110Jqk

Created 2020 May 26 13:07:18 UT using Find_Orb

Click here for an explanation of pseudo-MPECs

 
 Astrometry: 
     P110Jqk  C2020 05 21#W%s;/oKC3CpYoM%bo@Q9\#G$mORx,cW%tiNy2aB\t7cTSXt^K0aF51
     P110Jqk  C2020 05 21shAfqM$6u^oIMCH9^jvY[_3hraLCK3p9.61[TAstrometry5r*MgF51
     P110Jqk  C2020 05 21Semredacted;IFclickC\\)IJU0herewx5doOs+:T:)DVHw03S#6F51
     P110Jqk  C2020 05 21TGs6*B:_-77BVfor,explanationKOl?]`H*$f[hSilCC9p3Cm'\F51
     P110Jqk ^C2020 05 22.32095815 50 40.866-28 58 51.13   ~5M97 21.66GVNEOCP568
     P110Jqk ^C2020 05 22.32190415 50 40.807-28 58 43.12   ~5M97 21.56GVNEOCP568
     P110Jqk ^C2020 05 22.32285215 50 40.749-28 58 35.16   ~5M97 21.54GVNEOCP568

Station data:
(568) Mauna Kea  (N19.826116 W155.472200)  US/Hawaii.
(F51) Pan-STARRS 1, Haleakala  (N20.707235 W156.255910)  US/Hawaii.
   Observers N. Primak, A. Schultz, S. Watters, J. Thiel, T. Goggia. Measurer
   PS1 Science Consortium. 1.8-m Ritchey-Chrétien + CCD.

Orbital elements:  P110Jqk
   Perihelion 2020 May 15.710635 +/- 16.3 TT = 17:03:18 (JD 2458985.210635)
Epoch 2020 May 22.0 TT = JDT 2458991.5   Earth MOID: 0.2297   AutoNEOCP
M   3.13487490 +/- 8                (J2000 ecliptic)
n   0.49844062 +/- 0.0645           Peri.  351.83406 +/- 450
a   1.57541059 +/- 0.136            Node   243.97634 +/- 0.08
e   0.2126146 +/- 0.0559            Incl.   32.59033 +/- 2.6
P   1.98/722.24d           H 23.9   G  0.15   U 10.9  
q 1.24045517 +/- 0.0202    Q 1.91036602 +/- 0.27
From 7 observations 2020 May 21-22 (22.0 hr); mean residual 0".09
Residuals in arcseconds: 
200521 F51  .09-  .05-    200521 F51  .02-  .14-    200522 568  .04-  .06+    
200521 F51  .16+  .04-    200522 568  .04+  .08-    
200521 F51  .04-  .23+    200522 568  .01-  .02+    

Ephemerides (geocentric):
Date (UTC) HH   RA              Dec         delta   r     elong  mag " sig PA
---- -- -- --  -------------   -----------  ------ ------ -----  --- ---- ---
2020 05 26 13  15 47 48.736   -18 59 53.91  .23089 1.2428 173.4 21.6 29.2 159
2020 05 26 14  15 47 47.245   -18 54 01.16  .23094 1.2429 173.3 21.6 29.6 160
2020 05 26 15  15 47 45.758   -18 48 08.54  .23098 1.2429 173.3 21.6 30.0 160
2020 05 26 16  15 47 44.275   -18 42 16.07  .23102 1.2429 173.2 21.6 30.4 160
2020 05 26 17  15 47 42.796   -18 36 23.74  .23107 1.2429 173.1 21.6 30.8 160
2020 05 26 18  15 47 41.321   -18 30 31.56  .23111 1.2429 173.0 21.6 31.2 160
2020 05 26 19  15 47 39.850   -18 24 39.53  .23116 1.2430 172.9 21.6 31.6 160
2020 05 26 20  15 47 38.383   -18 18 47.65  .23121 1.2430 172.8 21.6 32.0 161
2020 05 26 21  15 47 36.920   -18 12 55.92  .23125 1.2430 172.8 21.6 32.4 161
2020 05 26 22  15 47 35.461   -18 07 04.36  .23130 1.2430 172.7 21.6 32.8 161
2020 05 26 23  15 47 34.006   -18 01 12.95  .23135 1.2430 172.6 21.6 33.2 161
2020 05 27 00  15 47 32.555   -17 55 21.71  .23140 1.2431 172.5 21.7 33.7 161
2020 05 27 01  15 47 31.108   -17 49 30.63  .23145 1.2431 172.4 21.7 34.1 161
2020 05 27 02  15 47 29.665   -17 43 39.72  .23150 1.2431 172.3 21.7 34.5 161
2020 05 27 03  15 47 28.226   -17 37 48.99  .23156 1.2431 172.2 21.7 34.9 162
2020 05 27 04  15 47 26.791   -17 31 58.43  .23161 1.2431 172.1 21.7 35.3 162
2020 05 27 05  15 47 25.360   -17 26 08.05  .23167 1.2431 172.0 21.7 35.8 162
2020 05 27 06  15 47 23.934   -17 20 17.84  .23172 1.2432 171.9 21.7 36.2 162
2020 05 27 07  15 47 22.511   -17 14 27.83  .23178 1.2432 171.9 21.7 36.6 162
2020 05 27 08  15 47 21.092   -17 08 37.99  .23183 1.2432 171.8 21.7 37.0 162
2020 05 27 09  15 47 19.678   -17 02 48.35  .23189 1.2432 171.7 21.7 37.5 163
2020 05 27 10  15 47 18.267   -16 56 58.90  .23195 1.2432 171.6 21.7 37.9 163
2020 05 27 11  15 47 16.861   -16 51 09.64  .23201 1.2433 171.5 21.7 38.3 163
2020 05 27 12  15 47 15.458   -16 45 20.58  .23207 1.2433 171.4 21.7 38.8 163
2020 05 27 13  15 47 14.060   -16 39 31.72  .23213 1.2433 171.3 21.7 39.2 163
2020 05 27 14  15 47 12.666   -16 33 43.06  .23219 1.2433 171.2 21.7 39.6 163
2020 05 27 15  15 47 11.276   -16 27 54.61  .23226 1.2433 171.1 21.7 40.1 163
2020 05 27 16  15 47 09.890   -16 22 06.36  .23232 1.2434 171.0 21.7 40.5 164
2020 05 27 17  15 47 08.508   -16 16 18.33  .23239 1.2434 170.9 21.7 41.0 164
2020 05 27 18  15 47 07.130   -16 10 30.51  .23245 1.2434 170.8 21.7 41.4 164
2020 05 27 19  15 47 05.757   -16 04 42.91  .23252 1.2434 170.7 21.7 41.8 164
2020 05 27 20  15 47 04.387   -15 58 55.52  .23258 1.2434 170.6 21.7 42.3 164
2020 05 27 21  15 47 03.022   -15 53 08.36  .23265 1.2435 170.5 21.7 42.7 164
2020 05 27 22  15 47 01.660   -15 47 21.42  .23272 1.2435 170.4 21.7 43.2 164
2020 05 27 23  15 47 00.303   -15 41 34.70  .23279 1.2435 170.3 21.7 43.6 164
2020 05 28 00  15 46 58.950   -15 35 48.22  .23286 1.2435 170.2 21.8 44.0 165
2020 05 28 01  15 46 57.601   -15 30 01.97  .23293 1.2436 170.1 21.8 44.5 165
2020 05 28 02  15 46 56.256   -15 24 15.95  .23300 1.2436 170.0 21.8 44.9 165
2020 05 28 03  15 46 54.916   -15 18 30.17  .23308 1.2436 169.9 21.8 45.4 165
2020 05 28 04  15 46 53.579   -15 12 44.63  .23315 1.2436 169.8 21.8 45.8 165
2020 05 28 05  15 46 52.247   -15 06 59.33  .23322 1.2436 169.7 21.8 46.3 165
2020 05 28 06  15 46 50.918   -15 01 14.28  .23330 1.2437 169.6 21.8 46.7 165
2020 05 28 07  15 46 49.594   -14 55 29.47  .23338 1.2437 169.5 21.8 47.2 165
2020 05 28 08  15 46 48.274   -14 49 44.91  .23345 1.2437 169.4 21.8 47.6 166
2020 05 28 09  15 46 46.959   -14 44 00.61  .23353 1.2437 169.3 21.8 48.1 166
2020 05 28 10  15 46 45.647   -14 38 16.56  .23361 1.2437 169.2 21.8 48.5 166
2020 05 28 11  15 46 44.340   -14 32 32.77  .23369 1.2438 169.1 21.8 49.0 166
2020 05 28 12  15 46 43.036   -14 26 49.24  .23377 1.2438 169.0 21.8 49.4 166